Regional Weather Roundup
Issued by NWS Upton, NY

Current Version | Previous Version | Text Only | Print | Product List | Glossary On
Versions: 1 2 3 4 5 6 7 8 9 10 11 12 13 14 15 16 17 18 19 20 21 22 23 24 25 26 27
000 ASUS41 KOKX 240505 RWROKX REGIONAL WEATHER ROUNDUP NATIONAL WEATHER SERVICE NEW YORK NY 100 AM EDT FRI OCT 24 2014 NOTE: "FAIR" INDICATES FEW OR NO CLOUDS BELOW 12,000 FEET WITH NO SIGNIFICANT WEATHER AND/OR OBSTRUCTIONS TO VISIBILITY. NYZ071-072-176-178-NJZ106-104-240600- NEW YORK CITY METRO AREA CITY SKY/WX TMP DP RH WIND PRES REMARKS CENTRAL PARK CLOUDY 52 43 71 VRB7 29.79F LAGUARDIA APRT CLOUDY 52 45 77 NW16 29.76F KENNEDY INTL CLOUDY 52 46 80 NW18 29.75F NEWARK/LIBERTY CLOUDY 53 43 68 NW13 29.77F BRNX BOT. GARD N/A 52 45 76 N2 29.78F TETERBORO CLOUDY 52 42 69 N8 29.77S $$ NYZ177-179-078>081-240600- LONG ISLAND NEW YORK CITY SKY/WX TMP DP RH WIND PRES REMARKS FARMINGDALE MOCLDY 51 46 83 N10G21 29.74R ISLIP CLOUDY 52 46 80 NW18G25 29.71R SHIRLEY CLOUDY 51 46 83 NW16 29.71S WESTHAMPTON CLOUDY 52 48 86 NW12G21 29.70S MONTAUK POINT N/A 55 49 80 N14G24 29.67R $$ NYZ052-065-067-240600- HUDSON VALLEY CITY SKY/WX TMP DP RH WIND PRES REMARKS WHITE PLAINS MOCLDY 50 43 77 N20G28 29.76R NEWBURGH CLOUDY 48 48 100 CALM 29.81S MONTGOMERY CLOUDY 49 42 77 NW9 29.80R POUGHKEEPSIE CLOUDY 50 45 83 N5 29.80S ALBANY CLOUDY 48 44 86 N8 29.83F $$ NJZ001-105-106-008-010-013-015-019>022-104-240600- NEW JERSEY CITY SKY/WX TMP DP RH WIND PRES REMARKS NEWARK/LIBERTY CLOUDY 53 43 68 NW13 29.77F TETERBORO CLOUDY 52 42 69 N8 29.77S CALDWELL CLOUDY 51 41 68 VRB3 29.78F MORRISTOWN CLOUDY 54 43 66 CALM 29.79R SOMERVILLE MOCLDY 52 42 69 NW8 29.78F SUSSEX MOCLDY 52 42 69 N8 29.80F ANDOVER N/A 49 42 77 VRB7 29.81F TRENTON MOCLDY 51 43 74 NW9G20 29.80R MILLVILLE CLEAR 53 44 71 NW9 29.81F ATLANTIC CITY PTCLDY 50 44 80 NW14 29.79S WRIGHTSTOWN MOCLDY 51 44 76 NW12G18 29.78S TOMS RIVER CLOUDY 52 45 76 NW7 29.78S BELMAR MOCLDY 52 41 66 NW9 29.76S $$ PAZ047>061-062-071-240600- EASTERN PENNSYLVANIA CITY SKY/WX TMP DP RH WIND PRES REMARKS PHILADELPHIA MOCLDY 55 44 66 NW13G22 29.82F ALLENTOWN CLOUDY 53 43 68 NW12G24 29.83S SCRANTON CLOUDY 50 45 83 N10 29.86F $$ CTZ002-004>006-009-010-012-RIZ004-006-007-MAZ004-011-015-240600- SOUTHERN NEW ENGLAND IN CT CITY SKY/WX TMP DP RH WIND PRES REMARKS BRADLEY INTL CLOUDY 51 47 86 NW9 29.72S HARTFORD CLOUDY 52 47 83 NW8 29.72S DANBURY CLOUDY 49 42 77 N9G20 29.77S WTRBRY/OXFORD CLOUDY 46 39 76 N8G17 29.74S BRIDGEPORT CLOUDY 51 44 77 NW10 29.73S MERIDEN CLOUDY 50 45 83 NW10 29.73R NEW HAVEN CLOUDY 53 44 71 N10G18 29.72R CHESTER RAIN 52 46 82 N17G24 29.70R GROTON CLOUDY 52 49 89 NW12 29.66R WILLIMANTIC LGT RAIN 51 48 89 NW7 29.69S FOG IN RI CITY SKY/WX TMP DP RH WIND PRES REMARKS PROVIDENCE LGT RAIN 51 48 89 N20 29.65S BLOCK ISLAND CLOUDY 54 46 76 N14G24 29.64R WESTERLY CLOUDY 53 48 83 N12G22 29.65S IN MA CITY SKY/WX TMP DP RH WIND PRES REMARKS BOSTON CLOUDY 48 48 100 N14 29.66S WORCESTER LGT RAIN 48 46 93 N16G25 29.68S FOG WESTFIELD CLOUDY 51 46 83 NW8 29.72S PROVINCETOWN CLOUDY 54 0 11 N23G33 29.59R NANTUCKET CLOUDY 57 56 96 N21G31 29.52R $$ ANZ330-335-338-340-345-350-353-355-240600- COASTAL MARINE OBSERVATIONS STATION/POSITION TIME SKY/WX TEMP WIND PRES VSBY WAVE AIR SEA DIR/SP/G HT/PER (UTC) (F) (DEG/KT/KT) (MB) (MI) (FT/S) NY HARB ENTRANCE NOT AVBL 4S FIRE IS 0500 63 N/A 3/ 9 20S FIRE ISLAND 0500 55 63 340/ 25/ 29 1005.4 6/ 6 23SW MTP 0500 N/A 7/ 6 HUDSON CANYON 0500 57 66 330/ 23/ 27 1004.2 10/ 8 EXECUTION ROCKS 0500 54 62 330/ 17/ 27 N/A WESTERN LI SOUND 0400 54 340/ 17/ 21 N/A 1/ 3 CENTRAL LI SOUND 0500 54 63 320/ 17/ 23 N/A 2/ 3 EASTERN LI SOUND 0400 55 63 350/ 17/ 23 N/A ROBBINS REEF 0500 53 330/ 14/ 18 1006.7 $$ >>>>>>>>>>>>>>>>>>>>>>>>>>>> KEY <<<<<<<<<<<<<<<<<<<<<<<<<<< > < > SKY/WX - SKY CONDITION/PRESENT WEATHER < > TMP - TEMPERATURE IN FAHRENHEIT < > DP - DEWPOINT IN FAHRENHEIT < > RH - RELATIVE HUMIDITY IN PERCENT < > WIND - DIRECTION AND SPEED IN MPH < > PRES - MEAN SEA LEVEL PRESSURE IN INCHES OF HG < > WCI - WIND CHILL INDEX < > VSB - VISIBILITY IN MILES < > HX - HEAT INDEX < > TC - TEMPERATURE IN CELSIUS < > VRB - VARIABLE WIND DIRECTION < > < >>>>>>>>>>>>>>>>>>>>>>>>>>>> KEY <<<<<<<<<<<<<<<<<<<<<<<<<<<

USA.gov is the U.S. government's official web portal to all federal, state and local government web resources and services.